Regional Weather Roundup
Issued by NWS Sioux Falls, SD

Home | Current Version | Previous Version | Graphics & Text | Print | Product List | Glossary Off
Versions: 1 2 3 4 5 6 7 8 9 10 11 12 13 14 15 16 17 18 19 20 21 22 23 24 25 26 27 28 29 30 31 32 33 34 35 36 37 38 39 40 41 42 43 44 45 46 47 48 49 50

000
ASUS43 KFSD 281310
RWRFSD

WEATHER ROUNDUP FOR SE SOUTH DAKOTA/SW MINNESOTA/NW IOWA
NATIONAL WEATHER SERVICE SIOUX FALLS SD
800 AM CDT THU APR 28 2016

NOTE: "FAIR" INDICATES FEW OR NO CLOUDS BELOW 12,000 FEET WITH NO
SIGNIFICANT WEATHER AND OR OBSTRUCTIONS TO VISIBILITY.


SDZ038>040-050-052>070-281400-
SOUTHEAST SOUTH DAKOTA

CITY           SKY/WX    TMP DP  RH WIND       PRES   REMARKS
BROOKINGS      LGT RAIN  35  33  92 NE10      29.91  WCI  27
CHAMBERLAIN    CLOUDY    38  38  98 N8        29.97R
HURON          LGT RAIN  38  34  85 N8        29.96R
MADISON        CLOUDY    36  36 100 E18       29.90R
MITCHELL       LGT RAIN  38  36  92 N14       29.95R
SIOUX FALLS    LGT RAIN  38  36  92 NE10      29.89R FOG
WINNER         LGT RAIN  37  34  89 N13       29.97R FOG
YANKTON        CLOUDY    41  37  87 N10       29.89R
$$

MNZ071-072-080-081-089-090-097-098-281400-
SOUTHWEST MINNESOTA

CITY           SKY/WX    TMP DP  RH WIND       PRES   REMARKS
FAIRMONT       CLOUDY    39  28  65 NE14      29.84R
JACKSON        CLOUDY    37  36  93 NE14      29.85R
LUVERNE        DRIZZLE   36  34  93 NE13      29.88R
MARSHALL       LGT SNOW  36  34  92 NE10      29.93R FOG
MONTEVIDEO     LGT RAIN  36  36 100 E9        29.96R
PIPESTONE      CLOUDY    37  36  93 E12       29.87R
REDWOOD FALLS  LGT RAIN  38  35  89 NE8       29.91R
TRACY          DRIZZLE   38  37  97 NE10      29.90R
WINDOM         CLOUDY    37  36  93 NE14      29.87R
WORTHINGTON    CLOUDY    37  35  92 NE15      29.86S
$$

IAZ001>003-012>014-020>022-031-032-NEZ013-014-SDZ071-281400-
NORTHWEST IOWA

CITY           SKY/WX    TMP DP  RH WIND       PRES   REMARKS
CHEROKEE       LGT RAIN  41  41 100 NE9       29.81R
DENISON        FOG       45  45 100 NW9       29.76R VSB 3/4
ESTHERVILLE    RAIN      37  36  96 NE13      29.83R FOG
LE MARS        CLOUDY    43  41  93 N10G17    29.85R
ORANGE CITY    RAIN      39  39 100 NE10      29.84R
SHELDON        LGT RAIN  39  39 100 NE18      29.83R
SIOUX CITY     CLOUDY    44  41  89 N14       29.84R FOG
SPENCER        LGT RAIN  39  36  89 NE16      29.83R FOG
STORM LAKE     CLOUDY    41  41 100 NE18      29.79R
$$

ABBREVIATIONS USED IN REMARKS
   TC - TEMPERATURE IN CELSIUS
  WCI - WIND CHILL INDEX
   HX - HEAT INDEX
  VSB - VISIBILITY




USA.gov is the U.S. government's official web portal to all federal, state and local government web resources and services.